Year,Month,Day,Hour,Minute,Value (Times are PST for temperature in C)
2016,01,09,00,00,6.70
2016,01,09,00,01,6.70
2016,01,09,00,02,6.70
2016,01,09,00,03,6.70
2016,01,09,00,04,6.70
2016,01,09,00,05,6.70
2016,01,09,00,06,6.60
2016,01,09,00,07,6.60
2016,01,09,00,08,6.60
2016,01,09,00,09,6.60
2016,01,09,00,10,6.60
2016,01,09,00,11,6.60
2016,01,09,00,12,6.60
2016,01,09,00,13,6.60
2016,01,09,00,14,6.60
2016,01,09,00,15,6.60
2016,01,09,00,16,6.60
2016,01,09,00,17,6.60
2016,01,09,00,18,6.60
2016,01,09,00,19,6.60
2016,01,09,00,20,6.60
2016,01,09,00,21,6.60
2016,01,09,00,22,6.60
2016,01,09,00,23,6.60
2016,01,09,00,24,6.60
2016,01,09,00,25,6.60
2016,01,09,00,26,6.60
2016,01,09,00,27,6.60
2016,01,09,00,28,6.60
2016,01,09,00,29,6.60
2016,01,09,00,30,6.60
2016,01,09,00,31,6.60
2016,01,09,00,32,6.60
2016,01,09,00,33,6.60
2016,01,09,00,34,6.60
2016,01,09,00,35,6.60
2016,01,09,00,36,6.60
2016,01,09,00,37,6.60
2016,01,09,00,38,6.60
2016,01,09,00,39,6.60
2016,01,09,00,40,6.60
2016,01,09,00,41,6.60
2016,01,09,00,42,6.60
2016,01,09,00,43,6.60
2016,01,09,00,44,6.60
2016,01,09,00,45,6.60
2016,01,09,00,46,6.60
2016,01,09,00,47,6.60
2016,01,09,00,48,6.60
2016,01,09,00,49,6.60
2016,01,09,00,50,6.60
2016,01,09,00,51,6.60
2016,01,09,00,52,6.60
2016,01,09,00,53,6.60
2016,01,09,00,54,6.60
2016,01,09,00,55,6.60
2016,01,09,00,56,6.60
2016,01,09,00,57,6.60
2016,01,09,00,58,6.60
2016,01,09,00,59,6.60
2016,01,09,01,00,6.60
2016,01,09,01,01,6.60
2016,01,09,01,02,6.60
2016,01,09,01,03,6.60
2016,01,09,01,04,6.60
2016,01,09,01,05,6.60
2016,01,09,01,06,6.60
2016,01,09,01,07,6.60
2016,01,09,01,08,6.60
2016,01,09,01,09,6.60
2016,01,09,01,10,6.60
2016,01,09,01,11,6.60
2016,01,09,01,12,6.60
2016,01,09,01,13,6.60
2016,01,09,01,14,6.60
2016,01,09,01,15,6.60
2016,01,09,01,16,6.60
2016,01,09,01,17,6.60
2016,01,09,01,18,6.60
2016,01,09,01,19,6.60
2016,01,09,01,20,6.60
2016,01,09,01,21,6.60
2016,01,09,01,22,6.60
2016,01,09,01,23,6.60
2016,01,09,01,24,6.50
2016,01,09,01,25,6.50
2016,01,09,01,26,6.40
2016,01,09,01,27,6.40
2016,01,09,01,28,6.40
2016,01,09,01,29,6.40
2016,01,09,01,30,6.40
2016,01,09,01,31,6.40
2016,01,09,01,32,6.40
2016,01,09,01,33,6.40
2016,01,09,01,34,6.40
2016,01,09,01,35,6.40
2016,01,09,01,36,6.40
2016,01,09,01,37,6.40
2016,01,09,01,38,6.40
2016,01,09,01,39,6.40
2016,01,09,01,40,6.30
2016,01,09,01,41,6.30
2016,01,09,01,42,6.30
2016,01,09,01,43,6.30
2016,01,09,01,44,6.30
2016,01,09,01,45,6.30
2016,01,09,01,46,6.30
2016,01,09,01,47,6.30
2016,01,09,01,48,6.30
2016,01,09,01,49,6.30
2016,01,09,01,50,6.20
2016,01,09,01,51,6.20
2016,01,09,01,52,6.20
2016,01,09,01,53,6.20
2016,01,09,01,54,6.20
2016,01,09,01,55,6.20
2016,01,09,01,56,6.20
2016,01,09,01,57,6.20
2016,01,09,01,58,6.10
2016,01,09,01,59,6.10
2016,01,09,02,00,6.10
2016,01,09,02,01,6.10
2016,01,09,02,02,6.00
2016,01,09,02,03,6.00
2016,01,09,02,04,6.00
2016,01,09,02,05,6.00
2016,01,09,02,06,5.90
2016,01,09,02,07,5.90
2016,01,09,02,08,5.90
2016,01,09,02,09,5.90
2016,01,09,02,10,5.90
2016,01,09,02,11,5.80
2016,01,09,02,12,5.80
2016,01,09,02,13,5.80
2016,01,09,02,14,5.80
2016,01,09,02,15,5.80
2016,01,09,02,16,5.70
2016,01,09,02,17,5.70
2016,01,09,02,18,5.70
2016,01,09,02,19,5.70
2016,01,09,02,20,5.70
2016,01,09,02,21,5.70
2016,01,09,02,22,5.70
2016,01,09,02,23,5.70
2016,01,09,02,24,5.70
2016,01,09,02,25,5.70
2016,01,09,02,26,5.70
2016,01,09,02,27,5.70
2016,01,09,02,28,5.70
2016,01,09,02,29,5.70
2016,01,09,02,30,5.70
2016,01,09,02,31,5.70
2016,01,09,02,32,5.70
2016,01,09,02,33,5.70
2016,01,09,02,34,5.70
2016,01,09,02,35,5.70
2016,01,09,02,36,5.70
2016,01,09,02,37,5.70
2016,01,09,02,38,5.70
2016,01,09,02,39,5.70
2016,01,09,02,40,5.70
2016,01,09,02,41,5.70
2016,01,09,02,42,5.70
2016,01,09,02,43,5.60
2016,01,09,02,44,5.60
2016,01,09,02,45,5.60
2016,01,09,02,46,5.60
2016,01,09,02,47,5.60
2016,01,09,02,48,5.50
2016,01,09,02,49,5.50
2016,01,09,02,50,5.50
2016,01,09,02,51,5.50
2016,01,09,02,52,5.40
2016,01,09,02,53,5.40
2016,01,09,02,54,5.40
2016,01,09,02,55,5.30
2016,01,09,02,56,5.30
2016,01,09,02,57,5.30
2016,01,09,02,58,5.30
2016,01,09,02,59,5.30
2016,01,09,03,00,5.20
2016,01,09,03,01,5.20
2016,01,09,03,02,5.20
2016,01,09,03,03,5.20
2016,01,09,03,04,5.20
2016,01,09,03,05,5.10
2016,01,09,03,06,5.10
2016,01,09,03,07,5.10
2016,01,09,03,08,5.10
2016,01,09,03,09,5.10
2016,01,09,03,10,5.10
2016,01,09,03,11,5.10
2016,01,09,03,12,5.10
2016,01,09,03,13,5.10
2016,01,09,03,14,5.00
2016,01,09,03,15,4.90
2016,01,09,03,16,4.90
2016,01,09,03,17,4.90
2016,01,09,03,18,4.90
2016,01,09,03,19,4.90
2016,01,09,03,20,4.90
2016,01,09,03,21,4.90
2016,01,09,03,22,4.90
2016,01,09,03,23,4.90
2016,01,09,03,24,4.90
2016,01,09,03,25,4.90
2016,01,09,03,26,4.90
2016,01,09,03,27,4.90
2016,01,09,03,28,4.90
2016,01,09,03,29,4.80
2016,01,09,03,30,4.80
2016,01,09,03,31,4.80
2016,01,09,03,32,4.80
2016,01,09,03,33,4.80
2016,01,09,03,34,4.80
2016,01,09,03,35,4.80
2016,01,09,03,36,4.70
2016,01,09,03,37,4.70
2016,01,09,03,38,4.70
2016,01,09,03,39,4.70
2016,01,09,03,40,4.70
2016,01,09,03,41,4.70
2016,01,09,03,42,4.60
2016,01,09,03,43,4.60
2016,01,09,03,44,4.60
2016,01,09,03,45,4.60
2016,01,09,03,46,4.60
2016,01,09,03,47,4.60
2016,01,09,03,48,4.60
2016,01,09,03,49,4.70
2016,01,09,03,50,4.70
2016,01,09,03,51,4.70
2016,01,09,03,52,4.80
2016,01,09,03,53,4.80
2016,01,09,03,54,4.90
2016,01,09,03,55,4.90
2016,01,09,03,56,4.90
2016,01,09,03,57,4.90
2016,01,09,03,58,4.90
2016,01,09,03,59,4.90
2016,01,09,04,00,4.90
2016,01,09,04,01,4.90
2016,01,09,04,02,4.90
2016,01,09,04,03,4.90
2016,01,09,04,04,4.90
2016,01,09,04,05,4.90
2016,01,09,04,06,4.90
2016,01,09,04,07,4.90
2016,01,09,04,08,4.90
2016,01,09,04,09,4.90
2016,01,09,04,10,4.90
2016,01,09,04,11,4.90
2016,01,09,04,12,4.90
2016,01,09,04,13,4.90
2016,01,09,04,14,4.90
2016,01,09,04,15,4.80
2016,01,09,04,16,4.80
2016,01,09,04,17,4.70
2016,01,09,04,18,4.70
2016,01,09,04,19,4.70
2016,01,09,04,20,4.60
2016,01,09,04,21,4.60
2016,01,09,04,22,4.60
2016,01,09,04,23,4.60
2016,01,09,04,24,4.60
2016,01,09,04,25,4.60
2016,01,09,04,26,4.60
2016,01,09,04,27,4.50
2016,01,09,04,28,4.50
2016,01,09,04,29,4.50
2016,01,09,04,30,4.50
2016,01,09,04,31,4.50
2016,01,09,04,32,4.40
2016,01,09,04,33,4.40
2016,01,09,04,34,4.40
2016,01,09,04,35,4.30
2016,01,09,04,36,4.30
2016,01,09,04,37,4.30
2016,01,09,04,38,4.30
2016,01,09,04,39,4.20
2016,01,09,04,40,4.20
2016,01,09,04,41,4.20
2016,01,09,04,42,4.20
2016,01,09,04,43,4.20
2016,01,09,04,44,4.20
2016,01,09,04,45,4.20
2016,01,09,04,46,4.20
2016,01,09,04,47,4.20
2016,01,09,04,48,4.20
2016,01,09,04,49,4.20
2016,01,09,04,50,4.20
2016,01,09,04,51,4.20
2016,01,09,04,52,4.10
2016,01,09,04,53,4.10
2016,01,09,04,54,4.10
2016,01,09,04,55,4.00
2016,01,09,04,56,4.00
2016,01,09,04,57,4.00
2016,01,09,04,58,3.90
2016,01,09,04,59,3.90
2016,01,09,05,00,3.90
2016,01,09,05,01,3.80
2016,01,09,05,02,3.80
2016,01,09,05,03,3.80
2016,01,09,05,04,3.80
2016,01,09,05,05,3.80
2016,01,09,05,06,3.70
2016,01,09,05,07,3.70
2016,01,09,05,08,3.70
2016,01,09,05,09,3.60
2016,01,09,05,10,3.60
2016,01,09,05,11,3.60
2016,01,09,05,12,3.50
2016,01,09,05,13,3.50
2016,01,09,05,14,3.50
2016,01,09,05,15,3.40
2016,01,09,05,16,3.40
2016,01,09,05,17,3.40
2016,01,09,05,18,3.30
2016,01,09,05,19,3.30
2016,01,09,05,20,3.30
2016,01,09,05,21,3.30
2016,01,09,05,22,3.30
2016,01,09,05,23,3.30
2016,01,09,05,24,3.20
2016,01,09,05,25,3.20
2016,01,09,05,26,3.20
2016,01,09,05,27,3.10
2016,01,09,05,28,3.10
2016,01,09,05,29,3.10
2016,01,09,05,30,3.10
2016,01,09,05,31,3.10
2016,01,09,05,32,3.10
2016,01,09,05,33,3.00
2016,01,09,05,34,2.90
2016,01,09,05,35,2.90
2016,01,09,05,36,2.90
2016,01,09,05,37,2.90
2016,01,09,05,38,2.80
2016,01,09,05,39,2.80
2016,01,09,05,40,2.80
2016,01,09,05,41,2.80
2016,01,09,05,42,2.80
2016,01,09,05,43,2.70
2016,01,09,05,44,2.70
2016,01,09,05,45,2.80
2016,01,09,05,46,2.70
2016,01,09,05,47,2.70
2016,01,09,05,48,2.70
2016,01,09,05,49,2.70
2016,01,09,05,50,2.70
2016,01,09,05,51,2.60
2016,01,09,05,52,2.60
2016,01,09,05,53,2.60
2016,01,09,05,54,2.60
2016,01,09,05,55,2.60
2016,01,09,05,56,2.50
2016,01,09,05,57,2.50
2016,01,09,05,58,2.50
2016,01,09,05,59,2.50
2016,01,09,06,00,2.50
2016,01,09,06,01,2.40
2016,01,09,06,02,2.40
2016,01,09,06,03,2.40
2016,01,09,06,04,2.40
2016,01,09,06,05,2.40
2016,01,09,06,06,2.40
2016,01,09,06,07,2.30
2016,01,09,06,08,2.30
2016,01,09,06,09,2.30
2016,01,09,06,10,2.30
2016,01,09,06,11,2.20
2016,01,09,06,12,2.20
2016,01,09,06,13,2.20
2016,01,09,06,14,2.30
2016,01,09,06,15,2.30
2016,01,09,06,16,2.40
2016,01,09,06,17,2.40
2016,01,09,06,18,2.40
2016,01,09,06,19,2.30
2016,01,09,06,20,2.30
2016,01,09,06,21,2.40
2016,01,09,06,22,2.40
2016,01,09,06,23,2.40
2016,01,09,06,24,2.30
2016,01,09,06,25,2.30
2016,01,09,06,26,2.30
2016,01,09,06,27,2.30
2016,01,09,06,28,2.30
2016,01,09,06,29,2.40
2016,01,09,06,30,2.40
2016,01,09,06,31,2.40
2016,01,09,06,32,2.40
2016,01,09,06,33,2.40
2016,01,09,06,34,2.30
2016,01,09,06,35,2.30
2016,01,09,06,36,2.30
2016,01,09,06,37,2.30
2016,01,09,06,38,2.30
2016,01,09,06,39,2.30
2016,01,09,06,40,2.40
2016,01,09,06,41,2.50
2016,01,09,06,42,2.50
2016,01,09,06,43,2.50
2016,01,09,06,44,2.60
2016,01,09,06,45,2.60
2016,01,09,06,46,2.60
2016,01,09,06,47,2.60
2016,01,09,06,48,2.60
2016,01,09,06,49,2.70
2016,01,09,06,50,2.70
2016,01,09,06,51,2.70
2016,01,09,06,52,2.70
2016,01,09,06,53,2.70
2016,01,09,06,54,2.70
2016,01,09,06,55,2.70
2016,01,09,06,56,2.60
2016,01,09,06,57,2.60
2016,01,09,06,58,2.60
2016,01,09,06,59,2.60
2016,01,09,07,00,2.60
2016,01,09,07,01,2.60
2016,01,09,07,02,2.60
2016,01,09,07,03,2.60
2016,01,09,07,04,2.60
2016,01,09,07,05,2.70
2016,01,09,07,06,2.60
2016,01,09,07,07,2.60
2016,01,09,07,08,2.60
2016,01,09,07,09,2.60
2016,01,09,07,10,2.70
2016,01,09,07,11,2.70
2016,01,09,07,12,2.60
2016,01,09,07,13,2.60
2016,01,09,07,14,2.70
2016,01,09,07,15,2.70
2016,01,09,07,16,2.60
2016,01,09,07,17,2.60
2016,01,09,07,18,2.60
2016,01,09,07,19,2.60
2016,01,09,07,20,2.60
2016,01,09,07,21,2.70
2016,01,09,07,22,2.70
2016,01,09,07,23,2.70
2016,01,09,07,24,2.70
2016,01,09,07,25,2.70
2016,01,09,07,26,2.70
2016,01,09,07,27,2.70
2016,01,09,07,28,2.60
2016,01,09,07,29,2.60
2016,01,09,07,30,2.50
2016,01,09,07,31,2.50
2016,01,09,07,32,2.50
2016,01,09,07,33,2.40
2016,01,09,07,34,2.40
2016,01,09,07,35,2.40
2016,01,09,07,36,2.40
2016,01,09,07,37,2.40
2016,01,09,07,38,2.30
2016,01,09,07,39,2.30
2016,01,09,07,40,2.20
2016,01,09,07,41,2.30
2016,01,09,07,42,2.40
2016,01,09,07,43,2.30
2016,01,09,07,44,2.30
2016,01,09,07,45,2.30
2016,01,09,07,46,2.30
2016,01,09,07,47,2.30
2016,01,09,07,48,2.20
2016,01,09,07,49,2.20
2016,01,09,07,50,2.30
2016,01,09,07,51,2.30
2016,01,09,07,52,2.30
2016,01,09,07,53,2.30
2016,01,09,07,54,2.40
2016,01,09,07,55,2.40
2016,01,09,07,56,2.30
2016,01,09,07,57,2.30
2016,01,09,07,58,2.20
2016,01,09,07,59,2.20
2016,01,09,08,00,2.20
2016,01,09,08,01,2.20
2016,01,09,08,02,2.20
2016,01,09,08,03,2.30
2016,01,09,08,04,2.30
2016,01,09,08,05,2.40
2016,01,09,08,06,2.40
2016,01,09,08,07,2.40
2016,01,09,08,08,2.40
2016,01,09,08,09,2.40
2016,01,09,08,10,2.40
2016,01,09,08,11,2.40
2016,01,09,08,12,2.40
2016,01,09,08,13,2.40
2016,01,09,08,14,2.50
2016,01,09,08,15,2.50
2016,01,09,08,16,2.50
2016,01,09,08,17,2.60
2016,01,09,08,18,2.60
2016,01,09,08,19,2.60
2016,01,09,08,20,2.60
2016,01,09,08,21,2.70
2016,01,09,08,22,2.70
2016,01,09,08,23,2.70
2016,01,09,08,24,2.70
2016,01,09,08,25,2.70
2016,01,09,08,26,2.70
2016,01,09,08,27,2.80
2016,01,09,08,28,2.80
2016,01,09,08,29,2.90
2016,01,09,08,30,2.90
2016,01,09,08,31,3.00
2016,01,09,08,32,3.10
2016,01,09,08,33,3.10
2016,01,09,08,34,3.10
2016,01,09,08,35,3.10
2016,01,09,08,36,3.20
2016,01,09,08,37,3.20
2016,01,09,08,38,3.20
2016,01,09,08,39,3.20
2016,01,09,08,40,3.30
2016,01,09,08,41,3.20
2016,01,09,08,42,3.30
2016,01,09,08,43,3.30
2016,01,09,08,44,3.30
2016,01,09,08,45,3.30
2016,01,09,08,46,3.30
2016,01,09,08,47,3.30
2016,01,09,08,48,3.30
2016,01,09,08,49,3.40
2016,01,09,08,50,3.40
2016,01,09,08,51,3.40
2016,01,09,08,52,3.40
2016,01,09,08,53,3.40
2016,01,09,08,54,3.40
2016,01,09,08,55,3.50
2016,01,09,08,56,3.50
2016,01,09,08,57,3.50
2016,01,09,08,58,3.60
2016,01,09,08,59,3.60
2016,01,09,09,00,3.60
2016,01,09,09,01,3.70
2016,01,09,09,02,3.70
2016,01,09,09,03,3.80
2016,01,09,09,04,3.80
2016,01,09,09,05,3.80
2016,01,09,09,06,3.90
2016,01,09,09,07,4.00
2016,01,09,09,08,4.00
2016,01,09,09,09,4.00
2016,01,09,09,10,4.10
2016,01,09,09,11,4.10
2016,01,09,09,12,4.20
2016,01,09,09,13,4.20
2016,01,09,09,14,4.20
2016,01,09,09,15,4.20
2016,01,09,09,16,4.30
2016,01,09,09,17,4.30
2016,01,09,09,18,4.30
2016,01,09,09,19,4.30
2016,01,09,09,20,4.40
2016,01,09,09,21,4.40
2016,01,09,09,22,4.40
2016,01,09,09,23,4.50
2016,01,09,09,24,4.50
2016,01,09,09,25,4.50
2016,01,09,09,26,4.50
2016,01,09,09,27,4.60
2016,01,09,09,28,4.60
2016,01,09,09,29,4.60
2016,01,09,09,30,4.60
2016,01,09,09,31,4.70
2016,01,09,09,32,4.70
2016,01,09,09,33,4.80
2016,01,09,09,34,4.80
2016,01,09,09,35,4.80
2016,01,09,09,36,4.90
2016,01,09,09,37,4.90
2016,01,09,09,38,4.90
2016,01,09,09,39,4.90
2016,01,09,09,40,4.90
2016,01,09,09,41,4.90
2016,01,09,09,42,4.90
2016,01,09,09,43,5.00
2016,01,09,09,44,5.10
2016,01,09,09,45,5.10
2016,01,09,09,46,5.10
2016,01,09,09,47,5.10
2016,01,09,09,48,5.20
2016,01,09,09,49,5.20
2016,01,09,09,50,5.20
2016,01,09,09,51,5.30
2016,01,09,09,52,5.30
2016,01,09,09,53,5.30
2016,01,09,09,54,5.30
2016,01,09,09,55,5.40
2016,01,09,09,56,5.50
2016,01,09,09,57,5.50
2016,01,09,09,58,5.60
2016,01,09,09,59,5.70
2016,01,09,10,00,5.70
2016,01,09,10,01,5.70
2016,01,09,10,02,5.70
2016,01,09,10,03,5.70
2016,01,09,10,04,5.70
2016,01,09,10,05,5.70
2016,01,09,10,06,5.70
2016,01,09,10,07,5.70
2016,01,09,10,08,5.80
2016,01,09,10,09,5.80
2016,01,09,10,10,5.80
2016,01,09,10,11,5.90
2016,01,09,10,12,5.90
2016,01,09,10,13,6.00
2016,01,09,10,14,6.00
2016,01,09,10,15,6.00
2016,01,09,10,16,6.00
2016,01,09,10,17,6.00
2016,01,09,10,18,6.10
2016,01,09,10,19,6.10
2016,01,09,10,20,6.10
2016,01,09,10,21,6.10
2016,01,09,10,22,6.10
2016,01,09,10,23,6.10
2016,01,09,10,24,6.20
2016,01,09,10,25,6.20
2016,01,09,10,26,6.20
2016,01,09,10,27,6.20
2016,01,09,10,28,6.30
2016,01,09,10,29,6.30
2016,01,09,10,30,6.30
2016,01,09,10,31,6.40
2016,01,09,10,32,6.40
2016,01,09,10,33,6.50
2016,01,09,10,34,6.60
2016,01,09,10,35,6.60
2016,01,09,10,36,6.60
2016,01,09,10,37,6.60
2016,01,09,10,38,6.60
2016,01,09,10,39,6.60
2016,01,09,10,40,6.60
2016,01,09,10,41,6.60
2016,01,09,10,42,6.70
2016,01,09,10,43,6.70
2016,01,09,10,44,6.70
2016,01,09,10,45,6.70
2016,01,09,10,46,6.70
2016,01,09,10,47,6.70
2016,01,09,10,48,6.70
2016,01,09,10,49,6.80
2016,01,09,10,50,6.80
2016,01,09,10,51,6.80
2016,01,09,10,52,6.80
2016,01,09,10,53,6.80
2016,01,09,10,54,6.80
2016,01,09,10,55,6.90
2016,01,09,10,56,7.00
2016,01,09,10,57,7.00
2016,01,09,10,58,7.00
2016,01,09,10,59,7.10
2016,01,09,11,00,7.10
2016,01,09,11,01,7.20
2016,01,09,11,02,7.30
2016,01,09,11,03,7.30
2016,01,09,11,04,7.20
2016,01,09,11,05,7.20
2016,01,09,11,06,7.20
2016,01,09,11,07,7.20
2016,01,09,11,08,7.20
2016,01,09,11,09,7.20
2016,01,09,11,10,7.20
2016,01,09,11,11,7.30
2016,01,09,11,12,7.30
2016,01,09,11,13,7.30
2016,01,09,11,14,7.40
2016,01,09,11,15,7.40
2016,01,09,11,16,7.40
2016,01,09,11,17,7.40
2016,01,09,11,18,7.40
2016,01,09,11,19,7.40
2016,01,09,11,20,7.40
2016,01,09,11,21,7.40
2016,01,09,11,22,7.40
2016,01,09,11,23,7.50
2016,01,09,11,24,7.50
2016,01,09,11,25,7.50
2016,01,09,11,26,7.50
2016,01,09,11,27,7.50
2016,01,09,11,28,7.50
2016,01,09,11,29,7.50
2016,01,09,11,30,7.50
2016,01,09,11,31,7.50
2016,01,09,11,32,7.50
2016,01,09,11,33,7.60
2016,01,09,11,34,7.60
2016,01,09,11,35,7.60
2016,01,09,11,36,7.60
2016,01,09,11,37,7.60
2016,01,09,11,38,7.50
2016,01,09,11,39,7.50
2016,01,09,11,40,7.50
2016,01,09,11,41,7.50
2016,01,09,11,42,7.60
2016,01,09,11,43,7.60
2016,01,09,11,44,7.70
2016,01,09,11,45,7.70
2016,01,09,11,46,7.80
2016,01,09,11,47,7.80
2016,01,09,11,48,7.80
2016,01,09,11,49,7.80
2016,01,09,11,50,7.80
2016,01,09,11,51,7.80
2016,01,09,11,52,7.90
2016,01,09,11,53,7.90
2016,01,09,11,54,7.90
2016,01,09,11,55,7.80
2016,01,09,11,56,7.80
2016,01,09,11,57,7.80
2016,01,09,11,58,7.90
2016,01,09,11,59,7.90
2016,01,09,12,00,7.90
2016,01,09,12,01,7.80
2016,01,09,12,02,7.80
2016,01,09,12,03,7.90
2016,01,09,12,04,7.90
2016,01,09,12,05,7.90
2016,01,09,12,06,7.80
2016,01,09,12,07,7.80
2016,01,09,12,08,7.80
2016,01,09,12,09,7.80
2016,01,09,12,10,7.80
2016,01,09,12,11,7.90
2016,01,09,12,12,7.80
2016,01,09,12,13,7.80
2016,01,09,12,14,7.80
2016,01,09,12,15,7.80
2016,01,09,12,16,7.80
2016,01,09,12,17,7.80
2016,01,09,12,18,7.80
2016,01,09,12,19,7.80
2016,01,09,12,20,7.80
2016,01,09,12,21,7.80
2016,01,09,12,22,7.90
2016,01,09,12,23,7.90
2016,01,09,12,24,7.90
2016,01,09,12,25,7.90
2016,01,09,12,26,7.80
2016,01,09,12,27,7.80
2016,01,09,12,28,7.80
2016,01,09,12,29,7.80
2016,01,09,12,30,7.80
2016,01,09,12,31,7.80
2016,01,09,12,32,7.80
2016,01,09,12,33,7.80
2016,01,09,12,34,7.80
2016,01,09,12,35,7.90
2016,01,09,12,36,7.90
2016,01,09,12,37,8.00
2016,01,09,12,38,8.00
2016,01,09,12,39,8.00
2016,01,09,12,40,8.00
2016,01,09,12,41,8.00
2016,01,09,12,42,7.90
2016,01,09,12,43,7.80
2016,01,09,12,44,7.80
2016,01,09,12,45,7.80
2016,01,09,12,46,7.80
2016,01,09,12,47,7.90
2016,01,09,12,48,7.90
2016,01,09,12,49,7.90
2016,01,09,12,50,7.80
2016,01,09,12,51,7.80
2016,01,09,12,52,7.80
2016,01,09,12,53,7.80
2016,01,09,12,54,7.80
2016,01,09,12,55,7.80
2016,01,09,12,56,7.80
2016,01,09,12,57,7.90
2016,01,09,12,58,7.90
2016,01,09,12,59,7.80
2016,01,09,13,00,7.80
2016,01,09,13,01,7.80
2016,01,09,13,02,7.80
2016,01,09,13,03,7.70
2016,01,09,13,04,7.70
2016,01,09,13,05,7.70
2016,01,09,13,06,7.80
2016,01,09,13,07,7.80
2016,01,09,13,08,7.80
2016,01,09,13,09,7.80
2016,01,09,13,10,7.80
2016,01,09,13,11,7.80
2016,01,09,13,12,7.70
2016,01,09,13,13,7.70
2016,01,09,13,14,7.80
2016,01,09,13,15,7.80
2016,01,09,13,16,7.80
2016,01,09,13,17,7.80
2016,01,09,13,18,7.70
2016,01,09,13,19,7.70
2016,01,09,13,20,7.70
2016,01,09,13,21,7.70
2016,01,09,13,22,7.80
2016,01,09,13,23,7.70
2016,01,09,13,24,7.80
2016,01,09,13,25,7.80
2016,01,09,13,26,7.80
2016,01,09,13,27,7.80
2016,01,09,13,28,7.80
2016,01,09,13,29,7.70
2016,01,09,13,30,7.70
2016,01,09,13,31,7.80
2016,01,09,13,32,7.80
2016,01,09,13,33,7.80
2016,01,09,13,34,7.80
2016,01,09,13,35,7.80
2016,01,09,13,36,7.70
2016,01,09,13,37,7.70
2016,01,09,13,38,7.60
2016,01,09,13,39,7.70
2016,01,09,13,40,7.70
2016,01,09,13,41,7.70
2016,01,09,13,42,7.70
2016,01,09,13,43,7.70
2016,01,09,13,44,7.80
2016,01,09,13,45,7.80
2016,01,09,13,46,7.80
2016,01,09,13,47,7.80
2016,01,09,13,48,7.70
2016,01,09,13,49,7.70
2016,01,09,13,50,7.70
2016,01,09,13,51,7.70
2016,01,09,13,52,7.70
2016,01,09,13,53,7.70
2016,01,09,13,54,7.70
2016,01,09,13,55,7.80
2016,01,09,13,56,7.80
2016,01,09,13,57,7.80
2016,01,09,13,58,7.80
2016,01,09,13,59,7.70
2016,01,09,14,00,7.70
2016,01,09,14,01,7.60
2016,01,09,14,02,7.60
2016,01,09,14,03,7.60
2016,01,09,14,04,7.70
2016,01,09,14,05,7.70
2016,01,09,14,06,7.70
2016,01,09,14,07,7.70
2016,01,09,14,08,7.70
2016,01,09,14,09,7.80
2016,01,09,14,10,7.80
2016,01,09,14,11,7.80
2016,01,09,14,12,7.80
2016,01,09,14,13,7.70
2016,01,09,14,14,7.70
2016,01,09,14,15,7.70
2016,01,09,14,16,7.60
2016,01,09,14,17,7.60
2016,01,09,14,18,7.60
2016,01,09,14,19,7.60
2016,01,09,14,20,7.60
2016,01,09,14,21,7.60
2016,01,09,14,22,7.70
2016,01,09,14,23,7.70
2016,01,09,14,24,7.60
2016,01,09,14,25,7.60
2016,01,09,14,26,7.60
2016,01,09,14,27,7.60
2016,01,09,14,28,7.60
2016,01,09,14,29,7.70
2016,01,09,14,30,7.70
2016,01,09,14,31,7.60
2016,01,09,14,32,7.60
2016,01,09,14,33,7.60
2016,01,09,14,34,7.60
2016,01,09,14,35,7.60
2016,01,09,14,36,7.60
2016,01,09,14,37,7.60
2016,01,09,14,38,7.60
2016,01,09,14,39,7.60
2016,01,09,14,40,7.60
2016,01,09,14,41,7.60
2016,01,09,14,42,7.60
2016,01,09,14,43,7.60
2016,01,09,14,44,7.50
2016,01,09,14,45,7.60
2016,01,09,14,46,7.50
2016,01,09,14,47,7.50
2016,01,09,14,48,7.50
2016,01,09,14,49,7.50
2016,01,09,14,50,7.50
2016,01,09,14,51,7.60
2016,01,09,14,52,7.60
2016,01,09,14,53,7.50
2016,01,09,14,54,7.50
2016,01,09,14,55,7.50
2016,01,09,14,56,7.50
2016,01,09,14,57,7.50
2016,01,09,14,58,7.40
2016,01,09,14,59,7.40
2016,01,09,15,00,7.40
2016,01,09,15,01,7.40
2016,01,09,15,02,7.40
2016,01,09,15,03,7.40
2016,01,09,15,04,7.50
2016,01,09,15,05,7.40
2016,01,09,15,06,7.40
2016,01,09,15,07,7.40
2016,01,09,15,08,7.40
2016,01,09,15,09,7.40
2016,01,09,15,10,7.40
2016,01,09,15,11,7.40
2016,01,09,15,12,7.40
2016,01,09,15,13,7.50
2016,01,09,15,14,7.40
2016,01,09,15,15,7.40
2016,01,09,15,16,7.40
2016,01,09,15,17,7.40
2016,01,09,15,18,7.40
2016,01,09,15,19,7.40
2016,01,09,15,20,7.40
2016,01,09,15,21,7.40
2016,01,09,15,22,7.40
2016,01,09,15,23,7.40
2016,01,09,15,24,7.40
2016,01,09,15,25,7.40
2016,01,09,15,26,7.40
2016,01,09,15,27,7.40
2016,01,09,15,28,7.40
2016,01,09,15,29,7.50
2016,01,09,15,30,7.50
2016,01,09,15,31,7.50
2016,01,09,15,32,7.50
2016,01,09,15,33,7.50
2016,01,09,15,34,7.40
2016,01,09,15,35,7.40
2016,01,09,15,36,7.40
2016,01,09,15,37,7.40
2016,01,09,15,38,7.40
2016,01,09,15,39,7.40
2016,01,09,15,40,7.40
2016,01,09,15,41,7.40
2016,01,09,15,42,7.40
2016,01,09,15,43,7.30
2016,01,09,15,44,7.30
2016,01,09,15,45,7.30
2016,01,09,15,46,7.30
2016,01,09,15,47,7.30
2016,01,09,15,48,7.30
2016,01,09,15,49,7.30
2016,01,09,15,50,7.30
2016,01,09,15,51,7.30
2016,01,09,15,52,7.30
2016,01,09,15,53,7.30
2016,01,09,15,54,7.30
2016,01,09,15,55,7.20
2016,01,09,15,56,7.20
2016,01,09,15,57,7.20
2016,01,09,15,58,7.20
2016,01,09,15,59,7.20
2016,01,09,16,00,7.20
2016,01,09,16,01,7.20
2016,01,09,16,02,7.10
2016,01,09,16,03,7.10
2016,01,09,16,04,7.10
2016,01,09,16,05,7.10
2016,01,09,16,06,7.10
2016,01,09,16,07,7.10
2016,01,09,16,08,7.00
2016,01,09,16,09,7.00
2016,01,09,16,10,7.00
2016,01,09,16,11,6.90
2016,01,09,16,12,6.90
2016,01,09,16,13,6.80
2016,01,09,16,14,6.80
2016,01,09,16,15,6.80
2016,01,09,16,16,6.80
2016,01,09,16,17,6.80
2016,01,09,16,18,6.80
2016,01,09,16,19,6.70
2016,01,09,16,20,6.70
2016,01,09,16,21,6.70
2016,01,09,16,22,6.60
2016,01,09,16,23,6.60
2016,01,09,16,24,6.60
2016,01,09,16,25,6.60
2016,01,09,16,26,6.60
2016,01,09,16,27,6.60
2016,01,09,16,28,6.60
2016,01,09,16,29,6.50
2016,01,09,16,30,6.40
2016,01,09,16,31,6.40
2016,01,09,16,32,6.40
2016,01,09,16,33,6.40
2016,01,09,16,34,6.40
2016,01,09,16,35,6.20
2016,01,09,16,36,6.10
2016,01,09,16,37,6.00
2016,01,09,16,38,5.90
2016,01,09,16,39,5.80
2016,01,09,16,40,5.70
2016,01,09,16,41,5.70
2016,01,09,16,42,5.60
2016,01,09,16,43,5.60
2016,01,09,16,44,5.50
2016,01,09,16,45,5.50
2016,01,09,16,46,5.40
2016,01,09,16,47,5.40
2016,01,09,16,48,5.30
2016,01,09,16,49,5.30
2016,01,09,16,50,5.30
2016,01,09,16,51,5.30
2016,01,09,16,52,5.30
2016,01,09,16,53,5.30
2016,01,09,16,54,5.30
2016,01,09,16,55,5.30
2016,01,09,16,56,5.30
2016,01,09,16,57,5.30
2016,01,09,16,58,5.30
2016,01,09,16,59,5.30
2016,01,09,17,00,5.30
2016,01,09,17,01,5.30
2016,01,09,17,02,5.30
2016,01,09,17,03,5.30
2016,01,09,17,04,5.30
2016,01,09,17,05,5.30
2016,01,09,17,06,5.30
2016,01,09,17,07,5.30
2016,01,09,17,08,5.30
2016,01,09,17,09,5.30
2016,01,09,17,10,5.30
2016,01,09,17,11,5.30
2016,01,09,17,12,5.30
2016,01,09,17,13,5.30
2016,01,09,17,14,5.20
2016,01,09,17,15,5.20
2016,01,09,17,16,5.20
2016,01,09,17,17,5.20
2016,01,09,17,18,5.10
2016,01,09,17,19,5.10
2016,01,09,17,20,5.10
2016,01,09,17,21,5.10
2016,01,09,17,22,5.00
2016,01,09,17,23,4.90
2016,01,09,17,24,4.90
2016,01,09,17,25,4.90
2016,01,09,17,26,4.90
2016,01,09,17,27,4.90
2016,01,09,17,28,4.80
2016,01,09,17,29,4.80
2016,01,09,17,30,4.80
2016,01,09,17,31,4.70
2016,01,09,17,32,4.70
2016,01,09,17,33,4.70
2016,01,09,17,34,4.70
2016,01,09,17,35,4.60
2016,01,09,17,36,4.60
2016,01,09,17,37,4.60
2016,01,09,17,38,4.60
2016,01,09,17,39,4.60
2016,01,09,17,40,4.60
2016,01,09,17,41,4.60
2016,01,09,17,42,4.60
2016,01,09,17,43,4.60
2016,01,09,17,44,4.50
2016,01,09,17,45,4.50
2016,01,09,17,46,4.60
2016,01,09,17,47,4.60
2016,01,09,17,48,4.60
2016,01,09,17,49,4.60
2016,01,09,17,50,4.60
2016,01,09,17,51,4.60
2016,01,09,17,52,4.60
2016,01,09,17,53,4.50
2016,01,09,17,54,4.40
2016,01,09,17,55,4.40
2016,01,09,17,56,4.30
2016,01,09,17,57,4.20
2016,01,09,17,58,4.20
2016,01,09,17,59,4.10
2016,01,09,18,00,4.00
2016,01,09,18,01,4.00
2016,01,09,18,02,3.90
2016,01,09,18,03,3.90
2016,01,09,18,04,3.90
2016,01,09,18,05,3.90
2016,01,09,18,06,3.90